[[{"header":{"parameterUnit":"m.s-1","parameterCategory":2,"la1":30.2992,"la2":30.254,"lo1":-89.0895,"lo2":-89.0443,"dy":0.0025,"dx":0.0025,"nx":19,"ny":19,"refTime":"2026-04-24T21:00:00:Z","depth":"0","parameterNumber":2,"parameterNumberName":"U-component_of_CURRENTS"},"data":[0,0,0,-0.1921,-0.192,-0.1888,-0.1888,-0.1883,-0.1883,0,0,0,0,0,0,0,0,0,0,0,-0.1923,-0.1922,-0.1921,-0.192,-0.1888,-0.1888,-0.1883,-0.1883,0,0,0,0,0,0,0,0,0,0,0,-0.1923,-0.1922,-0.1921,-0.192,-0.1888,-0.1888,-0.1883,-0.19,0,0,0,0,0,0,0,0,0,0,-0.1927,-0.1914,-0.1922,-0.1921,-0.192,-0.1888,-0.1888,-0.1901,-0.1899,-0.1905,0,-0.1883,0,-0.1884,-0.1882,-0.1882,0,0,0,-0.1928,-0.1915,-0.1913,-0.1921,-0.1919,-0.1888,-0.1905,-0.1899,-0.1898,-0.1903,-0.1883,-0.1883,-0.1884,-0.1882,-0.1882,-0.1827,-0.1827,0,0,-0.193,-0.1916,-0.1914,-0.1911,-0.189,-0.1906,-0.1904,-0.1898,-0.1884,-0.1883,-0.1883,-0.1883,-0.1882,-0.1882,-0.1828,-0.1827,0,0,0,-0.193,-0.1917,-0.1914,-0.1911,-0.1903,-0.1905,-0.1903,-0.1884,-0.1884,-0.1883,-0.1883,-0.1882,-0.1882,-0.1828,-0.1827,-0.1827,0,0,0,-0.1931,-0.1916,-0.1914,-0.1906,-0.1902,-0.1887,-0.1889,-0.1885,-0.1884,-0.1883,-0.1882,-0.1882,-0.1829,-0.1828,-0.1829,-0.1832,0,0,0,-0.1928,-0.1916,-0.1908,-0.1905,-0.189,-0.1887,-0.1887,-0.1885,-0.1885,-0.1882,-0.1882,-0.1829,-0.1828,-0.183,-0.1833,-0.1764,0,0,0,-0.1924,-0.1876,-0.1906,-0.1863,-0.189,-0.1862,-0.1887,-0.1863,-0.1855,-0.1882,-0.1829,-0.1828,-0.183,-0.1834,-0.1766,-0.153,-0.1503,0,0,-0.1862,-0.1868,-0.1848,-0.1874,-0.1848,-0.1869,-0.1841,-0.184,-0.1838,-0.1837,-0.1835,-0.1828,-0.1834,-0.1764,-0.1453,-0.1427,0,0,0,-0.1829,-0.1817,-0.1812,-0.1807,-0.1805,-0.1816,-0.1814,-0.1813,-0.1803,-0.1826,-0.1801,-0.1803,-0.176,-0.1621,-0.16,-0.1531,-0.1821,-0.1821,-0.1822,-0.1725,-0.1756,-0.1745,-0.178,-0.1765,-0.1773,-0.177,-0.1768,-0.1775,-0.1761,-0.1783,-0.1704,-0.1555,-0.1537,-0.147,-0.1757,-0.1757,-0.1757,-0.1757,-0.1712,-0.1684,-0.1752,-0.1767,-0.1775,-0.1764,-0.1749,-0.1749,-0.1719,-0.175,-0.1707,-0.1603,-0.1514,-0.145,-0.1757,-0.1757,-0.1757,-0.1757,-0.1757,-0.1744,-0.1685,-0.1778,-0.1743,-0.1757,-0.1746,-0.166,-0.1714,-0.1709,-0.1685,-0.1485,-0.1482,-0.1441,-0.1646,-0.1646,-0.1645,-0.1645,-0.1645,-0.1645,-0.1628,-0.1693,-0.1607,-0.1654,-0.1588,-0.1567,-0.1605,-0.1552,-0.1482,-0.1451,-0.1448,-0.1374,-0.1669,-0.1691,-0.164,-0.1641,-0.1642,-0.1642,-0.1642,-0.1359,-0.1384,-0.1291,-0.1225,-0.1124,-0.1041,-0.1161,-0.1085,-0.1094,-0.1005,-0.1054,-0.1299,-0.1266,-0.128,-0.1289,-0.1138,-0.1139,-0.1138,-0.1138,-0.104,-0.1083,-0.0868,-0.0746,-0.062,-0.0737,-0.0457,-0.0493,-0.0616,-0.0649,-0.0814,-0.0789,-0.0812,-0.0756,-0.0781,-0.0782,-0.0506,-0.0506,-0.0506,-0.0636,-0.0694,-0.0486,-0.0528,-0.0397,-0.036,-0.017,-0.0054,-0.0254,-0.0486,-0.0769,-0.0795,-0.0776,-0.0819,-0.0749,-0.079,-0.08,0,0]},{"header":{"parameterUnit":"m.s-1","parameterCategory":2,"la1":30.2992,"la2":30.254,"lo1":-89.0895,"lo2":-89.0443,"dy":0.0025,"dx":0.0025,"nx":19,"ny":19,"refTime":"2026-04-24T21:00:00:Z","depth":"0","parameterNumber":3,"parameterNumberName":"V-component_of_CURRENTS"},"data":[0,0,0,-0.0236,-0.0234,-0.0151,-0.015,0.0027,0.0028,0,0,0,0,0,0,0,0,0,0,0,-0.0261,-0.026,-0.0236,-0.0234,-0.0151,-0.015,0.0026,0.0028,0,0,0,0,0,0,0,0,0,0,0,-0.0261,-0.0261,-0.026,-0.0234,-0.0151,-0.015,0.0026,-0.005,0,0,0,0,0,0,0,0,0,0,-0.0138,-0.0186,-0.0261,-0.026,-0.0234,-0.0151,-0.015,-0.0054,-0.0045,0.0003,0,0.0006,0,0.0014,0.004,0.0041,0,0,0,-0.0216,-0.0194,-0.0167,-0.026,-0.0233,-0.0151,-0.0183,-0.005,-0.0039,0.0015,0.0009,0.0015,0.0017,0.0041,0.0042,0.0146,0.0146,0,0,-0.0221,-0.0243,-0.0174,-0.0161,-0.0222,-0.0186,-0.0181,-0.0044,-0.0039,0.0009,0.0019,0.002,0.0042,0.0044,0.0147,0.0146,0,0,0,-0.0246,-0.0247,-0.0224,-0.0168,-0.0162,-0.0184,-0.0178,-0.0045,-0.0037,0.002,0.0022,0.0043,0.0045,0.0147,0.0147,0.0081,0,0,0,-0.0248,-0.0262,-0.0227,-0.0238,-0.0166,-0.0114,-0.0182,-0.0046,-0.0031,0.0021,0.0043,0.0047,0.0147,0.0147,0.0083,0.0087,0,0,0,-0.0263,-0.0264,-0.0257,-0.024,-0.0212,-0.0117,-0.01,-0.0042,-0.003,0.0041,0.0048,0.0147,0.0147,0.0085,0.009,0.0161,0,0,0,-0.0283,-0.0284,-0.0258,-0.0258,-0.0213,-0.0174,-0.0101,-0.006,-0.0009,0.0044,0.0147,0.0147,0.0085,0.0091,0.0161,0.0377,0.0394,0,0,-0.0297,-0.0286,-0.0286,-0.0261,-0.0248,-0.0184,-0.0152,-0.0057,0.0005,0.0111,0.0113,0.0082,0.009,0.0161,0.0352,0.0371,0,0,0,-0.0299,-0.03,-0.029,-0.0277,-0.0239,-0.0191,-0.0114,-0.0067,0.0016,0.0031,0.0092,0.0101,0.0147,0.0277,0.0291,0.0368,0.0145,0.0145,0.0145,-0.0341,-0.0324,-0.0308,-0.0277,-0.0258,-0.0193,-0.0144,-0.0062,-0.0009,0.001,0.0052,0.0072,0.0206,0.022,0.0293,0.0042,0.0042,0.0042,0.0042,-0.0321,-0.0247,-0.0293,-0.0254,-0.0226,-0.0189,-0.0132,-0.01,0.0006,0.0015,0.0063,0.0207,0.0232,0.0305,0.0038,0.0038,0.0039,0.0039,0.0039,-0.0255,-0.0192,-0.0213,-0.0144,-0.0127,-0.0111,0.0,-0.0009,-0.0017,0.0006,0.0234,0.0238,0.0306,0.0053,0.0053,0.0053,0.0053,0.0054,0.0054,-0.0074,-0.0095,-0.0022,0.0021,0.0056,0.0121,0.0136,0.0189,0.0226,0.0221,0.0224,0.0341,0.0078,0.0082,0.0058,0.0058,0.0057,0.0057,0.0056,0.0213,0.0159,0.0242,0.0285,0.0377,0.0467,0.047,0.0588,0.0614,0.0666,0.0596,0.0363,0.0433,0.0424,0.0439,0.051,0.051,0.051,0.051,0.0415,0.0398,0.0459,0.0518,0.0629,0.0625,0.0852,0.096,0.0953,0.0932,0.0817,0.0837,0.0815,0.0905,0.0886,0.0909,0.1097,0.1098,0.1098,0.0648,0.0571,0.0651,0.0613,0.0703,0.0769,0.0938,0.1156,0.1199,0.1118,0.0874,0.085,0.0863,0.0824,0.0951,0.0918,0.0951,0,0]}],[{"header":{"parameterUnit":"m.s-1","parameterCategory":2,"la1":30.2992,"la2":30.254,"lo1":-89.0895,"lo2":-89.0443,"dy":0.0025,"dx":0.0025,"nx":19,"ny":19,"refTime":"2026-04-24T21:00:00:Z","depth":"2","parameterNumber":2,"parameterNumberName":"U-component_of_CURRENTS"},"data":[0,0,0,-0.1713,-0.1713,-0.1712,-0.1712,-0.1696,-0.1695,0,0,0,0,0,0,0,0,0,0,0,-0.171,-0.171,-0.1713,-0.1713,-0.1712,-0.1712,-0.1696,-0.1695,0,0,0,0,0,0,0,0,0,0,0,-0.171,-0.171,-0.171,-0.1713,-0.1712,-0.1712,-0.1696,-0.1701,0,0,0,0,0,0,0,0,0,0,-0.1704,-0.1695,-0.171,-0.171,-0.1713,-0.1712,-0.1712,-0.1701,-0.17,-0.1691,0,-0.1688,0,-0.1692,-0.1694,-0.1694,0,0,0,-0.1714,-0.1695,-0.1703,-0.171,-0.1713,-0.1712,-0.1713,-0.1701,-0.17,-0.169,-0.1688,-0.1687,-0.1691,-0.1694,-0.1694,-0.1642,-0.1642,0,0,-0.1714,-0.1703,-0.1703,-0.1702,-0.1708,-0.1713,-0.1713,-0.17,-0.1692,-0.1688,-0.1687,-0.1691,-0.1693,-0.1693,-0.1642,-0.1642,0,0,0,-0.1714,-0.1703,-0.1711,-0.1703,-0.1704,-0.1713,-0.1713,-0.1693,-0.1697,-0.1687,-0.1691,-0.1693,-0.1693,-0.1643,-0.1642,-0.1649,0,0,0,-0.1714,-0.1703,-0.1711,-0.1703,-0.1704,-0.1698,-0.1705,-0.1698,-0.1697,-0.1691,-0.1693,-0.1693,-0.1643,-0.1642,-0.165,-0.165,0,0,0,-0.1711,-0.1702,-0.1703,-0.1702,-0.1703,-0.1699,-0.1703,-0.1698,-0.1699,-0.1694,-0.1693,-0.1643,-0.1643,-0.1651,-0.1651,-0.1602,0,0,0,-0.17,-0.1675,-0.1702,-0.1679,-0.1703,-0.1688,-0.1703,-0.1687,-0.1678,-0.1693,-0.1643,-0.1642,-0.1651,-0.1652,-0.1603,-0.1491,-0.1476,0,0,-0.166,-0.167,-0.1659,-0.1683,-0.1671,-0.1689,-0.167,-0.1667,-0.1662,-0.1647,-0.1646,-0.165,-0.1651,-0.1602,-0.1437,-0.1424,0,0,0,-0.1641,-0.1637,-0.1636,-0.1639,-0.1642,-0.1653,-0.1652,-0.1649,-0.1638,-0.1653,-0.1628,-0.1629,-0.1598,-0.1532,-0.1521,-0.1638,-0.1638,-0.1638,-0.1638,-0.157,-0.1594,-0.1588,-0.1618,-0.1612,-0.1622,-0.1619,-0.1614,-0.1617,-0.1608,-0.1619,-0.1566,-0.1496,-0.1487,-0.1602,-0.1602,-0.1602,-0.1602,-0.1602,-0.1545,-0.1543,-0.1582,-0.1596,-0.1615,-0.161,-0.1603,-0.1605,-0.1577,-0.1599,-0.1568,-0.1524,-0.1475,-0.1602,-0.1602,-0.1602,-0.1602,-0.1602,-0.1602,-0.1549,-0.1535,-0.1584,-0.161,-0.1617,-0.1623,-0.1594,-0.1605,-0.1575,-0.1556,-0.1451,-0.1449,-0.1565,-0.1532,-0.1531,-0.1531,-0.1531,-0.1531,-0.1531,-0.15,-0.1537,-0.1556,-0.1609,-0.1616,-0.1624,-0.16,-0.1556,-0.1473,-0.1435,-0.1433,-0.1541,-0.1544,-0.1559,-0.1527,-0.1528,-0.1528,-0.1529,-0.1529,-0.1388,-0.1445,-0.1468,-0.1497,-0.1532,-0.1516,-0.1551,-0.1421,-0.1348,-0.1271,-0.1346,-0.1351,-0.133,-0.1337,-0.1346,-0.126,-0.126,-0.126,-0.126,-0.1269,-0.1317,-0.1282,-0.132,-0.1383,-0.1427,-0.1293,-0.1247,-0.1216,-0.1188,-0.1192,-0.1201,-0.1212,-0.1185,-0.1196,-0.1204,-0.1082,-0.1082,-0.1082,-0.1102,-0.1147,-0.1066,-0.1187,-0.1283,-0.1302,-0.1162,-0.0987,-0.0912,-0.1083,-0.1248,-0.1232,-0.1254,-0.1267,-0.1237,-0.125,-0.1266,0,0]},{"header":{"parameterUnit":"m.s-1","parameterCategory":2,"la1":30.2992,"la2":30.254,"lo1":-89.0895,"lo2":-89.0443,"dy":0.0025,"dx":0.0025,"nx":19,"ny":19,"refTime":"2026-04-24T21:00:00:Z","depth":"2","parameterNumber":3,"parameterNumberName":"V-component_of_CURRENTS"},"data":[0,0,0,-0.0332,-0.033,-0.0246,-0.0245,-0.0089,-0.0088,0,0,0,0,0,0,0,0,0,0,0,-0.0356,-0.0356,-0.0332,-0.033,-0.0246,-0.0245,-0.009,-0.0088,0,0,0,0,0,0,0,0,0,0,0,-0.0356,-0.0356,-0.0356,-0.033,-0.0246,-0.0245,-0.009,-0.0162,0,0,0,0,0,0,0,0,0,0,-0.0249,-0.0291,-0.0356,-0.0356,-0.033,-0.0246,-0.0245,-0.0166,-0.0158,-0.0119,0,-0.0111,0,-0.0103,-0.0078,-0.0077,0,0,0,-0.0316,-0.0298,-0.0271,-0.0355,-0.0329,-0.0246,-0.028,-0.0162,-0.0152,-0.0107,-0.0109,-0.0104,-0.01,-0.0077,-0.0076,0.0025,0.0025,0,0,-0.032,-0.034,-0.0278,-0.0265,-0.0313,-0.0283,-0.0277,-0.0156,-0.015,-0.0109,-0.01,-0.0097,-0.0076,-0.0075,0.0025,0.0025,0,0,0,-0.0344,-0.0344,-0.032,-0.0271,-0.0263,-0.0281,-0.0274,-0.0155,-0.0147,-0.0099,-0.0096,-0.0075,-0.0073,0.0025,0.0025,-0.0043,0,0,0,-0.0346,-0.0358,-0.0323,-0.0333,-0.0266,-0.0217,-0.0276,-0.0155,-0.0141,-0.0096,-0.0075,-0.0072,0.0025,0.0025,-0.0041,-0.0051,0,0,0,-0.0359,-0.036,-0.0351,-0.0335,-0.0305,-0.0219,-0.0203,-0.0152,-0.014,-0.0077,-0.0071,0.0025,0.0025,-0.0039,-0.0048,0.0001,0,0,0,-0.038,-0.0375,-0.0352,-0.0346,-0.0306,-0.0266,-0.0204,-0.0165,-0.0119,-0.0074,0.0025,0.0025,-0.0039,-0.0047,0.0001,0.0055,0.0057,0,0,-0.0386,-0.0376,-0.0374,-0.0351,-0.0335,-0.0277,-0.0246,-0.0162,-0.0103,-0.0009,-0.0006,-0.0041,-0.0048,0.0001,0.005,0.0052,0,0,0,-0.0384,-0.0385,-0.0375,-0.0361,-0.0322,-0.0283,-0.021,-0.0169,-0.0093,-0.0078,-0.0024,-0.0025,0.0008,0.0041,0.0043,0.0024,0.0024,0.0024,0.0024,-0.0422,-0.0405,-0.0405,-0.0378,-0.0349,-0.0283,-0.0241,-0.0167,-0.0114,-0.0096,-0.0069,-0.006,-0.0028,-0.0025,-0.0064,-0.0064,-0.0065,-0.0065,-0.0065,-0.0467,-0.0516,-0.0442,-0.0436,-0.0384,-0.0348,-0.0252,-0.0214,-0.012,-0.0103,-0.0068,-0.0018,-0.0027,-0.007,-0.0069,-0.0068,-0.0068,-0.0067,-0.0067,-0.055,-0.059,-0.0532,-0.0536,-0.047,-0.0394,-0.0345,-0.0257,-0.0164,-0.0141,-0.0034,-0.0032,-0.0074,-0.0104,-0.0104,-0.0104,-0.0104,-0.0104,-0.0104,-0.0731,-0.0679,-0.0721,-0.0657,-0.0624,-0.0554,-0.0381,-0.0285,-0.0122,-0.0075,-0.0073,-0.0072,-0.007,-0.0073,-0.0102,-0.0102,-0.0102,-0.0102,-0.0103,-0.0935,-0.0912,-0.0954,-0.093,-0.0849,-0.0804,-0.0578,-0.0306,-0.0131,-0.0046,-0.0015,-0.0018,0.0029,0.0029,0.0031,0.0031,0.0031,0.0031,0.0031,-0.109,-0.1093,-0.1127,-0.112,-0.1095,-0.0929,-0.0785,-0.0517,-0.0229,-0.0127,-0.0122,-0.0149,-0.0148,-0.0113,-0.011,-0.0112,-0.0149,-0.015,-0.0151,-0.1211,-0.1194,-0.1211,-0.1206,-0.1184,-0.1079,-0.0964,-0.0644,-0.0229,-0.017,-0.028,0.0044,0.0022,0.0015,0.0086,0.0083,0.0088,0,0]}],[{"header":{"parameterUnit":"m.s-1","parameterCategory":2,"la1":30.2992,"la2":30.254,"lo1":-89.0895,"lo2":-89.0443,"dy":0.0025,"dx":0.0025,"nx":19,"ny":19,"refTime":"2026-04-24T21:00:00:Z","depth":"4","parameterNumber":2,"parameterNumberName":"U-component_of_CURRENTS"},"data":[0,0,0,-0.1216,-0.1219,-0.1314,-0.1314,-0.1314,-0.1313,0,0,0,0,0,0,0,0,0,0,0,-0.1187,-0.1187,-0.1216,-0.1219,-0.1314,-0.1314,-0.1314,-0.1313,0,0,0,0,0,0,0,0,0,0,0,-0.1186,-0.1187,-0.1188,-0.1219,-0.1314,-0.1314,-0.1314,-0.1271,0,0,0,0,0,0,0,0,0,0,-0.1193,-0.1192,-0.1187,-0.1188,-0.122,-0.1314,-0.1314,-0.127,-0.1273,-0.1238,0,-0.1266,0,-0.1289,-0.1311,-0.1311,0,0,0,-0.1212,-0.119,-0.1209,-0.1189,-0.1221,-0.1314,-0.1269,-0.1273,-0.1276,-0.1242,-0.1267,-0.1268,-0.1289,-0.1311,-0.1311,-0.1292,-0.1292,0,0,-0.1207,-0.1203,-0.1207,-0.1212,-0.1261,-0.1266,-0.1272,-0.1276,-0.1287,-0.1267,-0.1268,-0.1289,-0.1311,-0.131,-0.1292,-0.1292,0,0,0,-0.1196,-0.12,-0.1222,-0.1211,-0.1238,-0.1269,-0.1276,-0.1287,-0.1294,-0.1268,-0.1289,-0.131,-0.131,-0.1292,-0.1292,-0.1304,0,0,0,-0.1193,-0.1194,-0.122,-0.1218,-0.1239,-0.1282,-0.1286,-0.1294,-0.1295,-0.1289,-0.131,-0.131,-0.1292,-0.1292,-0.1304,-0.1299,0,0,0,-0.1179,-0.1192,-0.1207,-0.1218,-0.1262,-0.1283,-0.1291,-0.1295,-0.1307,-0.1311,-0.131,-0.1292,-0.1292,-0.1303,-0.1299,-0.1262,0,0,0,-0.1165,-0.1178,-0.1208,-0.1227,-0.1261,-0.1286,-0.1292,-0.1313,-0.1318,-0.131,-0.1292,-0.1292,-0.1303,-0.1299,-0.1263,-0.1141,0,0,0,-0.1163,-0.1179,-0.1185,-0.1213,-0.1237,-0.1272,-0.129,-0.1304,-0.1304,-0.128,-0.1281,-0.1304,-0.1299,-0.1262,-0.1148,0,0,0,0,-0.1171,-0.1182,-0.1192,-0.1222,-0.1246,-0.1279,-0.1302,-0.1306,-0.1313,-0.1311,-0.1302,-0.1298,-0.1275,-0.1206,-0.1292,-0.1292,-0.1292,-0.1292,-0.1292,-0.1154,-0.1171,-0.1187,-0.1217,-0.124,-0.128,-0.1294,-0.1303,-0.1305,-0.1314,-0.1308,-0.1287,-0.1216,-0.1312,-0.1312,-0.1312,-0.1312,-0.1312,-0.1312,-0.1131,-0.1115,-0.1179,-0.1201,-0.1243,-0.127,-0.1293,-0.1306,-0.1294,-0.1312,-0.1289,-0.1224,-0.1313,-0.1313,-0.1313,-0.1313,-0.1313,-0.1313,-0.1313,-0.1082,-0.1068,-0.1127,-0.1154,-0.1212,-0.1259,-0.1271,-0.1298,-0.1298,-0.1288,-0.1186,-0.1278,-0.1275,-0.1271,-0.1271,-0.1271,-0.1271,-0.1271,-0.1271,-0.097,-0.1025,-0.1038,-0.1086,-0.1129,-0.1174,-0.1245,-0.1242,-0.1253,-0.1173,-0.1282,-0.1272,-0.1274,-0.1272,-0.1268,-0.1269,-0.1269,-0.1269,-0.1269,-0.0858,-0.0892,-0.0896,-0.0936,-0.0998,-0.103,-0.1136,-0.1125,-0.1082,-0.1024,-0.1096,-0.1106,-0.1079,-0.1085,-0.1075,-0.1013,-0.1011,-0.101,0,-0.0773,-0.0783,-0.0794,-0.0821,-0.0826,-0.0938,-0.09,-0.093,-0.0943,-0.0913,-0.105,-0.1131,-0.1137,-0.1109,-0.1111,-0.11,0,0,0,-0.0718,-0.0725,-0.0711,-0.0734,-0.0757,-0.0795,-0.0883,-0.0855,-0.0957,-0.0911,-0.0969,-0.098,-0.1175,-0.126,-0.1241,-0.1243,-0.1238,0,0]},{"header":{"parameterUnit":"m.s-1","parameterCategory":2,"la1":30.2992,"la2":30.254,"lo1":-89.0895,"lo2":-89.0443,"dy":0.0025,"dx":0.0025,"nx":19,"ny":19,"refTime":"2026-04-24T21:00:00:Z","depth":"4","parameterNumber":3,"parameterNumberName":"V-component_of_CURRENTS"},"data":[0,0,0,-0.027,-0.0269,-0.0218,-0.0218,-0.0104,-0.0103,0,0,0,0,0,0,0,0,0,0,0,-0.0284,-0.0283,-0.027,-0.0269,-0.0219,-0.0218,-0.0104,-0.0103,0,0,0,0,0,0,0,0,0,0,0,-0.0284,-0.0283,-0.0283,-0.0269,-0.0219,-0.0218,-0.0104,-0.0152,0,0,0,0,0,0,0,0,0,0,-0.0206,-0.0239,-0.0284,-0.0283,-0.0269,-0.0219,-0.0218,-0.0154,-0.0149,-0.0117,0,-0.0116,0,-0.0112,-0.0095,-0.0095,0,0,0,-0.0256,-0.0244,-0.0224,-0.0283,-0.0268,-0.0219,-0.0238,-0.0151,-0.0145,-0.0109,-0.0114,-0.011,-0.011,-0.0095,-0.0094,-0.0004,-0.0004,0,0,-0.0259,-0.0276,-0.0229,-0.0221,-0.0262,-0.0239,-0.0236,-0.0148,-0.0146,-0.0114,-0.0108,-0.0108,-0.0094,-0.0093,-0.0004,-0.0004,0,0,0,-0.0276,-0.0278,-0.0261,-0.0225,-0.0223,-0.0238,-0.0235,-0.015,-0.0144,-0.0107,-0.0107,-0.0093,-0.0092,-0.0004,-0.0004,-0.007,0,0,0,-0.0277,-0.0288,-0.0263,-0.0272,-0.0225,-0.0195,-0.0239,-0.015,-0.014,-0.0108,-0.0093,-0.0091,-0.0004,-0.0004,-0.0068,-0.0094,0,0,0,-0.0285,-0.0289,-0.0285,-0.0273,-0.0257,-0.0197,-0.0185,-0.0147,-0.014,-0.0095,-0.009,-0.0004,-0.0004,-0.0067,-0.0092,-0.0084,0,0,0,-0.0301,-0.0296,-0.0285,-0.0281,-0.0258,-0.0227,-0.0186,-0.0158,-0.0124,-0.0093,-0.0004,-0.0004,-0.0067,-0.009,-0.0083,-0.0173,0,0,0,-0.0302,-0.0297,-0.0294,-0.0283,-0.027,-0.0233,-0.021,-0.0152,-0.0104,-0.0028,-0.0026,-0.0069,-0.0092,-0.0084,-0.0152,0,0,0,0,-0.0299,-0.0302,-0.0295,-0.0287,-0.0259,-0.0239,-0.0185,-0.0155,-0.0097,-0.0084,-0.0043,-0.0055,-0.0048,-0.0096,-0.0002,-0.0002,-0.0002,-0.0002,-0.0002,-0.033,-0.0315,-0.0327,-0.0309,-0.0284,-0.0236,-0.0211,-0.0155,-0.0111,-0.0096,-0.009,-0.0104,-0.0157,-0.0069,-0.0069,-0.0069,-0.007,-0.007,-0.007,-0.0388,-0.0426,-0.038,-0.0394,-0.0351,-0.0329,-0.0237,-0.0205,-0.0146,-0.0117,-0.0107,-0.014,-0.0076,-0.0075,-0.0074,-0.0073,-0.0073,-0.0072,-0.0072,-0.0486,-0.0503,-0.0501,-0.0526,-0.0502,-0.0429,-0.0412,-0.0315,-0.0205,-0.0195,-0.0212,-0.0131,-0.0145,-0.0183,-0.0183,-0.0184,-0.0184,-0.0184,-0.0184,-0.0618,-0.0606,-0.065,-0.0674,-0.0679,-0.0667,-0.0535,-0.0468,-0.0321,-0.0284,-0.0205,-0.0141,-0.0137,-0.0149,-0.0185,-0.0185,-0.0185,-0.0185,-0.0184,-0.0738,-0.0737,-0.0803,-0.0829,-0.0855,-0.0842,-0.0754,-0.0571,-0.0505,-0.0415,-0.0316,-0.0309,-0.0286,-0.0278,-0.0294,-0.0374,-0.0376,-0.0377,0,-0.0802,-0.0819,-0.085,-0.0885,-0.0931,-0.0894,-0.0847,-0.0733,-0.051,-0.0503,-0.0447,-0.0338,-0.0332,-0.0308,-0.0303,-0.0324,0,0,0,-0.0829,-0.0838,-0.0848,-0.0881,-0.0904,-0.0843,-0.0809,-0.0733,-0.0605,-0.0524,-0.041,-0.0401,-0.0343,-0.0189,-0.0136,-0.0131,-0.0146,0,0]}]]